Chignik, AK

8:46 AM AKDT on September 28, 2016 (GMT -0800)
Chignik

Weather History for PAJC - November, 2011

Change the Weather History Date:

Tuesday, November 8, 2011

  Actual Average Record
Temperature  
Mean Temperature 34 °F -  
Max Temperature 39 °F 39 °F 53 °F (2003)
Min Temperature 30 °F 33 °F 26 °F (1996)
Degree Days  
Heating Degree Days 30    
Moisture  
Dew Point 18 °F    
Average Humidity 51    
Maximum Humidity 75    
Minimum Humidity 44    
Precipitation  
Precipitation 0.00 in - - ()
Sea Level Pressure  
Sea Level Pressure 30.23 in    
Wind  
Wind Speed 13 mph (West)    
Max Wind Speed 23 mph    
Max Gust Speed 36 mph    
Visibility 10 miles    
Events      
Averages and records for this station are not official NWS values.
T = Trace of Precipitation, MM = Missing Value Source: NWS Daily Summary

Daily Weather History Graph

Daily Weather History Graph

Search for Another Location

Airport or City:

Trip Planner

Search our weather history database for the weather conditions in past years. The results will help you decide how hot, cold, wet, or windy it might be!

Date:

Astronomy

Nov. 08, 2011 Rise Set
Actual Time 8:56 AM AKST 5:37 PM AKST
Civil Twilight 8:15 AM AKST 6:18 PM AKST
Nautical Twilight 7:30 AM AKST 7:03 PM AKST
Astronomical Twilight 6:46 AM AKST 7:47 PM AKST
Moon 4:29 PM AKST (11/8) 6:56 AM AKST (11/8)
Length of Visible Light 10h 03m
Length of Day
8h 40m
Waxing Gibbous, 96% of the Moon is Illuminated
Nov 8
Waxing Gibbous
Nov 10
Full
Nov 18
Last Quarter
Nov 24
New
Dec 2
First Quarter

Hourly Weather History & Observations

Time (AKST) Temp. Windchill Dew Point Humidity Pressure Visibility Wind Dir Wind Speed Gust Speed Precip Events Conditions
12:16 AM 30.2 °F 20.2 °F 12.2 °F 47% 30.21 in 10.0 mi WNW 12.7 mph 16.1 mph N/A   Overcast
12:36 AM 30.2 °F 19.8 °F 12.2 °F 47% 30.22 in 10.0 mi NW 13.8 mph 19.6 mph N/A   Overcast
12:56 AM 30.2 °F 18.5 °F 12.2 °F 47% 30.22 in 10.0 mi WNW 17.3 mph 28.8 mph N/A   Overcast
1:16 AM 30.2 °F 18.9 °F 12.2 °F 47% 30.24 in 10.0 mi NW 16.1 mph 27.6 mph N/A   Overcast
1:36 AM 30.2 °F 21.3 °F 12.2 °F 47% 30.25 in 10.0 mi WNW 10.4 mph 23.0 mph N/A   Overcast
1:56 AM 30.2 °F 20.8 °F 12.2 °F 47% 30.26 in 10.0 mi NW 11.5 mph 24.2 mph N/A   Overcast
2:16 AM 30.2 °F 19.8 °F 12.2 °F 47% 30.26 in 10.0 mi NW 13.8 mph 21.9 mph N/A   Mostly Cloudy
2:36 AM 30.2 °F 18.9 °F 12.2 °F 47% 30.27 in 10.0 mi NW 16.1 mph 23.0 mph N/A   Mostly Cloudy
2:56 AM 30.2 °F 18.9 °F 12.2 °F 47% 30.27 in 10.0 mi NW 16.1 mph 23.0 mph N/A   Partly Cloudy
3:16 AM 30.2 °F 19.3 °F 12.2 °F 47% 30.26 in 10.0 mi WNW 15.0 mph 21.9 mph N/A   Clear
3:36 AM 30.2 °F 18.9 °F 14.0 °F 51% 30.26 in 10.0 mi NW 16.1 mph 27.6 mph N/A   Clear
3:56 AM 30.2 °F 18.5 °F 12.2 °F 47% 30.26 in 10.0 mi WNW 17.3 mph 26.5 mph N/A   Clear
4:36 AM 32.0 °F 19.5 °F 12.2 °F 44% 30.27 in 10.0 mi WNW 21.9 mph 32.2 mph N/A   Clear
4:56 AM 32.0 °F 20.1 °F 14.0 °F 48% 30.28 in 10.0 mi WNW 19.6 mph 32.2 mph N/A   Clear
5:16 AM 32.0 °F 19.8 °F 14.0 °F 48% 30.28 in 10.0 mi NW 20.7 mph 35.7 mph N/A   Clear
5:36 AM 32.0 °F 20.5 °F 12.2 °F 44% 30.28 in 10.0 mi West 18.4 mph 33.4 mph N/A   Clear
5:56 AM 32.0 °F 20.8 °F 14.0 °F 48% 30.30 in 10.0 mi West 17.3 mph 33.4 mph N/A   Clear
6:16 AM 33.8 °F 23.5 °F 14.0 °F 44% 30.30 in 10.0 mi WSW 16.1 mph 31.1 mph N/A   Clear
6:36 AM 33.8 °F 21.9 °F 15.8 °F 48% 30.30 in 10.0 mi West 21.9 mph 33.4 mph N/A   Clear
7:16 AM 33.8 °F 24.8 °F 17.6 °F 52% 30.32 in 10.0 mi West 12.7 mph 21.9 mph N/A   Clear
7:36 AM 33.8 °F 22.5 °F 17.6 °F 52% 30.31 in 10.0 mi West 19.6 mph 31.1 mph N/A   Clear
7:56 AM 33.8 °F 22.8 °F 17.6 °F 52% 30.30 in 10.0 mi West 18.4 mph 32.2 mph N/A   Clear
8:16 AM 33.8 °F 21.6 °F 17.6 °F 52% 30.30 in 10.0 mi West 23.0 mph 31.1 mph N/A   Clear
8:36 AM 33.8 °F 23.5 °F 19.4 °F 56% 30.31 in 10.0 mi West 16.1 mph 27.6 mph N/A   Clear
8:56 AM 33.8 °F 24.3 °F 17.6 °F 52% 30.32 in 10.0 mi West 13.8 mph 20.7 mph N/A   Clear
9:16 AM 33.8 °F 23.9 °F 17.6 °F 52% 30.33 in 10.0 mi WSW 15.0 mph 23.0 mph N/A   Clear
9:36 AM 33.8 °F 23.5 °F 17.6 °F 52% 30.32 in 10.0 mi SW 16.1 mph 19.6 mph N/A   Clear
9:56 AM 35.6 °F 25.9 °F 17.6 °F 48% 30.31 in 10.0 mi WNW 16.1 mph 20.7 mph N/A   Clear
10:16 AM 35.6 °F 28.0 °F 17.6 °F 48% 30.32 in 10.0 mi SW 10.4 mph 18.4 mph N/A   Clear
10:36 AM 35.6 °F 26.6 °F 15.8 °F 44% 30.31 in 10.0 mi West 13.8 mph 19.6 mph N/A   Clear
10:56 AM 35.6 °F 25.9 °F 17.6 °F 48% 30.32 in 10.0 mi SW 16.1 mph 26.5 mph N/A   Clear
11:16 AM 35.6 °F 25.9 °F 17.6 °F 48% 30.31 in 10.0 mi WSW 16.1 mph 20.7 mph N/A   Clear
11:36 AM 35.6 °F 28.6 °F 19.4 °F 52% 30.32 in 10.0 mi SW 9.2 mph - N/A   Clear
11:56 AM 35.6 °F 27.5 °F 19.4 °F 52% 30.32 in 10.0 mi WSW 11.5 mph - N/A   Clear
12:16 PM 35.6 °F 26.2 °F 19.4 °F 52% 30.32 in 10.0 mi WSW 15.0 mph - N/A   Clear
12:36 PM 35.6 °F 29.2 °F 17.6 °F 48% 30.32 in 10.0 mi West 8.1 mph - N/A   Clear
12:56 PM 35.6 °F 28.6 °F 19.4 °F 52% 30.31 in 10.0 mi West 9.2 mph - N/A   Clear
1:16 PM 35.6 °F 32.8 °F 17.6 °F 48% 30.30 in 10.0 mi WSW 3.5 mph - N/A   Clear
1:36 PM 37.4 °F 33.8 °F 17.6 °F 45% 30.28 in 10.0 mi NW 4.6 mph - N/A   Clear
1:56 PM 37.4 °F 33.8 °F 17.6 °F 45% 30.27 in 10.0 mi NNE 4.6 mph - N/A   Clear
2:16 PM 37.4 °F 34.9 °F 19.4 °F 48% 30.25 in 10.0 mi North 3.5 mph - N/A   Clear
2:36 PM 37.4 °F 33.8 °F 17.6 °F 45% 30.24 in 10.0 mi North 4.6 mph - N/A   Clear
2:56 PM 37.4 °F - 17.6 °F 45% 30.23 in 10.0 mi Calm Calm - N/A   Clear
3:16 PM 37.4 °F 34.9 °F 19.4 °F 48% 30.22 in 10.0 mi NNE 3.5 mph - N/A   Clear
3:36 PM 35.6 °F - 19.4 °F 52% 30.19 in 10.0 mi Calm Calm - N/A   Clear
3:56 PM 35.6 °F - 19.4 °F 52% 30.17 in 10.0 mi Calm Calm - N/A   Clear
4:16 PM 35.6 °F - 19.4 °F 52% 30.15 in 10.0 mi Calm Calm - N/A   Clear
4:36 PM 35.6 °F 32.8 °F 19.4 °F 52% 30.15 in 10.0 mi South 3.5 mph - N/A   Partly Cloudy
4:56 PM 35.6 °F 31.7 °F 19.4 °F 52% 30.14 in 10.0 mi South 4.6 mph - N/A   Mostly Cloudy
5:16 PM 35.6 °F 31.7 °F 19.4 °F 52% 30.13 in 10.0 mi SSE 4.6 mph - N/A   Mostly Cloudy
5:36 PM 35.6 °F 31.7 °F 21.2 °F 56% 30.12 in 10.0 mi NNE 4.6 mph - N/A   Mostly Cloudy
5:56 PM 39.2 °F 35.9 °F 24.8 °F 56% 30.10 in 10.0 mi West 4.6 mph 20.7 mph N/A   Overcast
6:16 PM 39.2 °F 35.9 °F 24.8 °F 56% 30.09 in 10.0 mi SSE 4.6 mph - N/A   Overcast
6:36 PM 39.2 °F 32.5 °F 24.8 °F 56% 30.07 in 10.0 mi WSW 10.4 mph 19.6 mph N/A   Overcast
6:56 PM 39.2 °F 32.0 °F 26.6 °F 61% 30.04 in 10.0 mi East 11.5 mph - N/A   Overcast
7:16 PM 37.4 °F 34.9 °F 28.4 °F 70% 30.02 in 10.0 mi ESE 3.5 mph - N/A   Overcast
7:36 PM 37.4 °F - 28.4 °F 70% 30.01 in 10.0 mi Calm Calm - N/A   Overcast
7:56 PM 37.4 °F 32.8 °F 28.4 °F 70% 29.99 in 10.0 mi North 5.8 mph - N/A   Overcast
8:16 PM 37.4 °F 31.4 °F 30.2 °F 75% 29.99 in 10.0 mi NE 8.1 mph - N/A   Overcast
8:36 PM 37.4 °F 30.8 °F 30.2 °F 75% 29.97 in 10.0 mi NE 9.2 mph - N/A   Overcast
8:56 PM 41.0 °F 37.1 °F 28.4 °F 61% 29.93 in 10.0 mi ENE 5.8 mph 24.2 mph N/A   Overcast
9:16 PM 42.8 °F 37.0 °F 28.4 °F 57% 29.91 in 9.0 mi NW 10.4 mph 26.5 mph N/A   Overcast
9:36 PM 42.8 °F 35.8 °F 28.4 °F 57% 29.89 in 10.0 mi SW 13.8 mph 35.7 mph N/A   Overcast
9:56 PM 44.6 °F 35.1 °F 28.4 °F 53% 29.87 in 10.0 mi SSW 27.6 mph 40.3 mph N/A   Overcast
10:16 PM 44.6 °F 38.1 °F 28.4 °F 53% 29.86 in 10.0 mi SW 13.8 mph 44.9 mph N/A   Overcast
10:36 PM 46.4 °F 38.5 °F 28.4 °F 50% 29.86 in 10.0 mi SSW 21.9 mph 41.4 mph N/A   Overcast
10:56 PM 46.4 °F 37.7 °F 28.4 °F 50% 29.85 in 10.0 mi SSW 26.5 mph 42.6 mph N/A   Overcast
11:16 PM 46.4 °F 39.2 °F 28.4 °F 50% 29.84 in 10.0 mi SSW 18.4 mph 42.6 mph N/A   Overcast
11:36 PM 46.4 °F 37.0 °F 28.4 °F 50% 29.82 in 10.0 mi SSW 31.1 mph 46.0 mph N/A   Overcast
11:56 PM 46.4 °F 39.5 °F 30.2 °F 53% 29.82 in 10.0 mi South 17.3 mph 36.8 mph N/A   Overcast